Flag for Canada Weather past 2 weeks in Chilliwack, British Columbia, Canada

Now
44 °F

Quite cool.


Feels Like: 37 °F
Forecast: 33 / 45 °F
Wind: 13 mph from Northeast

Location: Agassiz

Current Time: Dec 19, 2014 at 11:36:30 PM

Latest Report: Dec 19, 2014 at 11:00 PM


Visibility: N/A

Pressure: 29.86 "Hg

Humidity: 84%

Dew point: 39 °F

Location of ChilliwackLocation

Historic Weather in Chilliwack — Graph

°F

Chilliwack temperature yesterday

Maximum temperature yesterday: 45 °F (at 2:00 PM)
Minimum temperature yesterday: 38 °F (at 8:00 AM)
Average temperature yesterday: 43 °F

Past Weeks' High & Low Weather Summary

 TemperatureHumidityPressure
High57 °F (Dec 9, 3:00 PM)100% (Dec 6, 7:00 AM)30.28 "Hg (Dec 6, 7:00 AM)
Low35 °F (Dec 5, 2:00 AM)49% (Dec 15, 4:00 AM)29.22 "Hg (Dec 10, 6:00 PM)
Average44 °F83%29.88 "Hg
* Reported Dec 4 10:00 PM — Dec 19 10:00 PM, Chilliwack, Weather by CustomWeather, © 2014

Note: Actual official high and low records may vary slightly from our data, if they occured in-between our weather recording intervals... More about our weather records

Advertising

Chilliwack weather history for previous 24 hours

 ConditionsComfort  
Time TempWeatherWind HumidityBarometerVisibility
10:00 PM
Dec 19
44 °FQuite cool.18 mph82%29.86 "HgN/A
9:00 PM45 °FQuite cool.16 mph78%29.88 "HgN/A
8:00 PM44 °FQuite cool.10 mph90%29.90 "HgN/A
7:00 PM41 °FQuite cool.2 mph98%29.92 "HgN/A
6:00 PM42 °FQuite cool.1 mph98%29.92 "HgN/A
5:00 PM42 °FQuite cool.1 mph98%29.93 "HgN/A
4:00 PM44 °FQuite cool.1 mph96%29.92 "HgN/A
3:00 PM47 °FCool.2 mph94%29.92 "HgN/A
2:00 PM47 °FCool.2 mph93%29.92 "HgN/A
1:00 PM47 °FCool.2 mph88%29.91 "HgN/A
12:00 PM45 °FCool.2 mph97%29.92 "HgN/A
11:00 AM45 °FCool.2 mph96%29.91 "HgN/A
10:00 AM43 °FQuite cool.2 mph98%29.90 "HgN/A
9:00 AM43 °FQuite cool.No wind99%29.85 "HgN/A
8:00 AM43 °FQuite cool.1 mph99%29.83 "HgN/A
7:00 AM42 °FQuite cool.1 mph98%29.81 "HgN/A
6:00 AM42 °FQuite cool.2 mph98%29.79 "HgN/A
5:00 AM42 °FQuite cool.1 mph98%29.78 "HgN/A
4:00 AM42 °FQuite cool.1 mph98%29.78 "HgN/A
3:00 AM42 °FQuite cool.1 mph98%29.77 "HgN/A
2:00 AM42 °FQuite cool.1 mph98%29.76 "HgN/A
1:00 AM42 °FQuite cool.1 mph97%29.75 "HgN/A
12:00 AM42 °FQuite cool.1 mph100%29.74 "HgN/A
11:00 PM
Dec 18
44 °FQuite cool.2 mph93%29.72 "HgN/A
Weather by CustomWeather, © 2014

See weather overviewHow to use our weather pages